| time (UTC) | temp F | wind direction | speed MPH | gust MPH | rain 1hr in | rain 24hr in | rain mn in | humidity % | barometer mb |
| 20260504050003 | 58 | 285 | 1.0 | 4.0 | 0.00 | 0.00 | 0.00 | 74 | 1013.2 |
| 20260504045403 | 58 | 284 | 1.0 | 4.0 | 0.00 | 0.00 | 0.00 | 72 | 1013.1 |
| 20260504044503 | 58 | 279 | 1.0 | 5.0 | 0.00 | 0.00 | 0.00 | 72 | 1012.9 |
| 20260504043603 | 58 | 254 | 2.0 | 5.0 | 0.00 | 0.00 | 0.00 | 72 | 1012.8 |
| 20260504042725 | 58 | 266 | 1.0 | 4.0 | 0.00 | 0.00 | 0.00 | 72 | 1012.8 |
| 20260504041824 | 58 | 274 | 1.0 | 4.0 | 0.00 | 0.00 | 0.00 | 71 | 1012.9 |
| 20260504040924 | 59 | 305 | 1.0 | 3.0 | 0.00 | 0.00 | 0.00 | 70 | 1012.7 |
| 20260504040024 | 59 | 326 | 2.0 | 3.0 | 0.00 | 0.00 | 0.00 | 69 | 1012.5 |
| 20260504035424 | 60 | 315 | 1.0 | 3.0 | 0.00 | 0.00 | 0.00 | 68 | 1012.5 |
| 20260504034524 | 60 | 305 | 1.0 | 3.0 | 0.00 | 0.00 | 0.00 | 67 | 1012.4 |
| 20260504033624 | 60 | 289 | 1.0 | 3.0 | 0.00 | 0.00 | 0.00 | 66 | 1012.3 |
| 20260504032724 | 61 | 307 | 2.0 | 5.0 | 0.00 | 0.00 | 0.00 | 66 | 1012.3 |
| 20260504031824 | 61 | 290 | 2.0 | 4.0 | 0.00 | 0.00 | 0.00 | 65 | 1012.2 |
| 20260504030924 | 62 | 280 | 2.0 | 7.0 | 0.00 | 0.00 | 0.00 | 65 | 1012.1 |
| 20260504030024 | 62 | 276 | 2.0 | 8.0 | 0.00 | 0.00 | 0.00 | 64 | 1012.0 |
| 20260504025403 | 62 | 289 | 2.0 | 8.0 | 0.00 | 0.00 | 0.00 | 63 | 1011.9 |
| 20260504024503 | 63 | 312 | 2.0 | 6.0 | 0.00 | 0.00 | 0.00 | 62 | 1011.6 |
| 20260504023603 | 64 | 321 | 2.0 | 7.0 | 0.00 | 0.00 | 0.00 | 61 | 1011.3 |
| 20260504022703 | 65 | 297 | 2.0 | 7.0 | 0.00 | 0.00 | 0.00 | 60 | 1011.3 |
| 20260504021803 | 65 | 284 | 3.0 | 9.0 | 0.00 | 0.00 | 0.00 | 59 | 1011.3 |
| 20260504020924 | 66 | 305 | 3.0 | 8.0 | 0.00 | 0.00 | 0.00 | 58 | 1011.1 |
| 20260504020003 | 66 | 287 | 3.0 | 11.0 | 0.00 | 0.00 | 0.00 | 58 | 1011.0 |
| 20260504015403 | 67 | 294 | 3.0 | 10.0 | 0.00 | 0.00 | 0.00 | 58 | 1011.0 |
| 20260504014503 | 67 | 301 | 3.0 | 10.0 | 0.00 | 0.00 | 0.00 | 58 | 1011.0 |
| 20260504013603 | 67 | 286 | 3.0 | 11.0 | 0.00 | 0.00 | 0.00 | 58 | 1011.1 |
| 20260504012703 | 67 | 271 | 3.0 | 11.0 | 0.00 | 0.00 | 0.00 | 57 | 1011.0 |
| 20260504011803 | 67 | 274 | 4.0 | 10.0 | 0.00 | 0.00 | 0.00 | 59 | 1011.0 |
| 20260504010924 | 67 | 290 | 4.0 | 10.0 | 0.00 | 0.00 | 0.00 | 57 | 1011.1 |
| 20260504010003 | 68 | 271 | 4.0 | 10.0 | 0.00 | 0.00 | 0.00 | 58 | 1011.2 |
| 20260504005424 | 68 | 279 | 4.0 | 11.0 | 0.00 | 0.00 | 0.00 | 57 | 1011.0 |
| 20260504004503 | 68 | 276 | 3.0 | 12.0 | 0.00 | 0.00 | 0.00 | 57 | 1011.0 |
| 20260504003603 | 68 | 275 | 4.0 | 12.0 | 0.00 | 0.00 | 0.00 | 57 | 1011.0 |
| 20260504002703 | 69 | 265 | 4.0 | 12.0 | 0.00 | 0.00 | 0.00 | 57 | 1010.8 |
| 20260504001803 | 70 | 271 | 4.0 | 12.0 | 0.00 | 0.00 | 0.00 | 54 | 1010.9 |
| 20260504000903 | 71 | 264 | 3.0 | 10.0 | 0.00 | 0.00 | 0.00 | 54 | 1010.8 |
| 20260504000003 | 72 | 271 | 3.0 | 9.0 | 0.00 | 0.00 | 0.00 | 53 | 1010.8 |
| 20260503235403 | 72 | 307 | 3.0 | 11.0 | 0.00 | 0.00 | 0.00 | 53 | 1010.7 |
| 20260503234503 | 72 | 282 | 3.0 | 11.0 | 0.00 | 0.00 | 0.00 | 54 | 1010.7 |
| 20260503233603 | 72 | 309 | 3.0 | 11.0 | 0.00 | 0.00 | 0.00 | 54 | 1010.7 |
| 20260503232703 | 72 | 277 | 3.0 | 8.0 | 0.00 | 0.00 | 0.00 | 53 | 1010.7 |
| 20260503231803 | 72 | 290 | 3.0 | 11.0 | 0.00 | 0.00 | 0.00 | 53 | 1010.8 |
| 20260503230903 | 72 | 290 | 3.0 | 12.0 | 0.00 | 0.00 | 0.00 | 52 | 1010.9 |
| 20260503230003 | 72 | 325 | 3.0 | 11.0 | 0.00 | 0.00 | 0.00 | 54 | 1010.9 |
| 20260503225403 | 72 | 312 | 3.0 | 11.0 | 0.00 | 0.00 | 0.00 | 52 | 1010.9 |
| 20260503224503 | 72 | 285 | 3.0 | 10.0 | 0.00 | 0.00 | 0.00 | 53 | 1010.9 |
| 20260503223606 | 72 | 285 | 3.0 | 9.0 | 0.00 | 0.00 | 0.00 | 54 | 1011.0 |
| 20260503222703 | 71 | 293 | 3.0 | 11.0 | 0.00 | 0.00 | 0.00 | 55 | 1011.1 |
| 20260503221803 | 70 | 265 | 3.0 | 9.0 | 0.00 | 0.00 | 0.00 | 56 | 1011.0 |
| 20260503220903 | 71 | 296 | 3.0 | 11.0 | 0.00 | 0.00 | 0.00 | 53 | 1011.1 |
| 20260503220003 | 71 | 309 | 3.0 | 10.0 | 0.00 | 0.00 | 0.00 | 54 | 1011.1 |
| 20260503215406 | 72 | 311 | 3.0 | 15.0 | 0.00 | 0.00 | 0.00 | 52 | 1011.1 |
| 20260503214503 | 71 | 302 | 3.0 | 8.0 | 0.00 | 0.00 | 0.00 | 56 | 1011.3 |
| 20260503213603 | 71 | 297 | 3.0 | 8.0 | 0.00 | 0.00 | 0.00 | 53 | 1011.4 |
| 20260503212703 | 71 | 327 | 3.0 | 9.0 | 0.00 | 0.00 | 0.00 | 55 | 1011.5 |
| 20260503211803 | 71 | 337 | 3.0 | 11.0 | 0.00 | 0.00 | 0.00 | 54 | 1011.4 |
| 20260503210924 | 72 | 284 | 2.0 | 9.0 | 0.00 | 0.00 | 0.00 | 54 | 1011.5 |
| 20260503210003 | 71 | 341 | 4.0 | 13.0 | 0.00 | 0.00 | 0.00 | 56 | 1011.4 |
| 20260503205403 | 71 | 308 | 3.0 | 8.0 | 0.00 | 0.00 | 0.00 | 55 | 1011.4 |
| 20260503204503 | 71 | 312 | 3.0 | 10.0 | 0.00 | 0.00 | 0.00 | 56 | 1011.4 |
| 20260503203603 | 71 | 324 | 3.0 | 11.0 | 0.00 | 0.00 | 0.00 | 56 | 1011.4 |
| 20260503202703 | 70 | 311 | 3.0 | 8.0 | 0.00 | 0.00 | 0.00 | 57 | 1011.4 |
| 20260503201803 | 70 | 290 | 3.0 | 8.0 | 0.00 | 0.00 | 0.00 | 57 | 1011.4 |
| 20260503200903 | 70 | 318 | 4.0 | 12.0 | 0.00 | 0.00 | 0.00 | 56 | 1011.4 |
| 20260503200003 | 69 | 275 | 2.0 | 9.0 | 0.00 | 0.00 | 0.00 | 58 | 1011.5 |
| 20260503195403 | 69 | 274 | 2.0 | 5.0 | 0.00 | 0.00 | 0.00 | 56 | 1011.6 |
| 20260503194503 | 70 | 284 | 2.0 | 9.0 | 0.00 | 0.00 | 0.00 | 55 | 1011.8 |
| 20260503193603 | 70 | 280 | 2.0 | 7.0 | 0.00 | 0.00 | 0.00 | 57 | 1011.8 |
| 20260503192703 | 70 | 278 | 2.0 | 8.0 | 0.00 | 0.00 | 0.00 | 56 | 1011.8 |
| 20260503191803 | 69 | 320 | 2.0 | 5.0 | 0.00 | 0.00 | 0.00 | 58 | 1011.7 |
| 20260503190903 | 69 | 293 | 2.0 | 8.0 | 0.00 | 0.00 | 0.00 | 56 | 1011.9 |
| 20260503190003 | 69 | 281 | 2.0 | 5.0 | 0.00 | 0.00 | 0.00 | 58 | 1011.8 |
| 20260503185406 | 69 | 287 | 3.0 | 12.0 | 0.00 | 0.00 | 0.00 | 56 | 1011.8 |
| 20260503184503 | 69 | 282 | 2.0 | 8.0 | 0.00 | 0.00 | 0.00 | 57 | 1011.8 |
| 20260503183603 | 69 | 334 | 3.0 | 14.0 | 0.00 | 0.00 | 0.00 | 57 | 1011.7 |
| 20260503182703 | 68 | 286 | 3.0 | 14.0 | 0.00 | 0.00 | 0.00 | 58 | 1011.8 |
| 20260503181803 | 68 | 269 | 2.0 | 10.0 | 0.00 | 0.00 | 0.00 | 58 | 1011.7 |
| 20260503180904 | 68 | 271 | 2.0 | 8.0 | 0.00 | 0.00 | 0.00 | 61 | 1011.9 |
| 20260503180003 | 67 | 267 | 2.0 | 9.0 | 0.00 | 0.00 | 0.00 | 61 | 1011.8 |
| 20260503175403 | 67 | 266 | 2.0 | 10.0 | 0.00 | 0.00 | 0.00 | 61 | 1011.8 |
| 20260503174503 | 66 | 265 | 2.0 | 7.0 | 0.00 | 0.00 | 0.00 | 62 | 1011.8 |
| 20260503173603 | 66 | 269 | 3.0 | 11.0 | 0.00 | 0.00 | 0.00 | 61 | 1011.8 |
| 20260503172703 | 66 | 267 | 2.0 | 7.0 | 0.00 | 0.00 | 0.00 | 62 | 1011.6 |
| 20260503171803 | 66 | 298 | 3.0 | 6.0 | 0.00 | 0.00 | 0.00 | 61 | 1011.8 |
| 20260503170903 | 66 | 316 | 2.0 | 8.0 | 0.00 | 0.00 | 0.00 | 64 | 1011.7 |
| 20260503150903 | 57 | 228 | 0.0 | 2.0 | 0.00 | 0.00 | 0.00 | 82 | 1011.2 |
| 20260503130903 | 55 | 296 | 1.0 | 3.0 | 0.00 | 0.00 | 0.00 | 82 | 1009.9 |
| 20260503080903 | 56 | 340 | 1.0 | 3.0 | 0.00 | 0.00 | 0.00 | 82 | 1010.0 |
| 20260503072703 | 56 | 309 | 2.0 | 4.0 | 0.00 | 0.00 | 0.00 | 82 | 1010.0 |
| 20260503071803 | 56 | 325 | 2.0 | 3.0 | 0.00 | 0.00 | 0.00 | 81 | 1010.1 |
| 20260503070903 | 56 | 334 | 2.0 | 3.0 | 0.00 | 0.00 | 0.00 | 81 | 1010.1 |